Location: Mt. Graham
(32.7020°N, 109.8880°W)
Time: 13:52:34
(UTC-07:00)

Tiangong 2 - Visible Passes

Search period start: 22 February 2018 00:00
Search period end: 04 March 2018 00:00
Orbit: 384 x 388 km, 42.8° (Epoch: 22 February)

Date Brightness Start Highest point End Pass type
(mag) Time Alt. Az. Time Alt. Az. Time Alt. Az.
22 Feb 1.0 19:09:57 10° NW 19:13:06 69° NNE 19:14:35 28° ESE visible
23 Feb 2.9 19:48:04 10° W 19:50:45 25° SW 19:51:14 24° SSW visible
24 Feb 1.7 18:48:46 10° WNW 18:51:52 54° SSW 18:54:56 10° SE visible
25 Feb 4.1 19:27:58 10° WSW 19:29:19 12° SW 19:30:41 10° SSW visible
